sat.trackr.live / text

‹ back to catalog

STARLINK-35593

NORAD 66107 · 2025-236X

PAYLOAD ACTIVE UNKNOWN

§ Identity

Operator
Country
US
Launch date
2025-10-19
Launch site
AFWTR
Launch vehicle
Mass (kg)
RCS (m²)

Purposes: comms

External: N2YO · Heavens-Above · Gunter

§ Orbital elements

Epoch: 2026-09-20T14:18:03.447072Z

Period
93.85 min
Inclination
53.1571°
Eccentricity
0.0001100
Mean motion
15.34402876 rev/d
Perigee alt
461.9 km
Apogee alt
463.4 km
Semi-major
6,840.8 km
B*
5.4045e-4
RAAN
275.1444°
Arg perigee
80.0354°
Mean anomaly
280.0773°
Rev number
5,283

§ Raw data

STARLINK-355931 66107U 25236X   26263.59587323  .00017929  00000+0  54045-3 0  99972 66107  53.1571 275.1444 0001100  80.0354 280.0773 15.34402876 52838

JSON: /api/v1/satellites/66107 · /tle

For live sub-satellite position, see the globe view (requires WebGL).

§ Visibility from observer

Set your observer location to see the next 7 days of passes ≥ 10°. The values pass through the URL so the page stays shareable.

No JS? Fill the form by hand. The geolocation button needs JavaScript.